Location: Chena
(64.8152°N, 147.9227°W)
Time: 10:42:45
(UTC+00:00)

Transit 2A Rocket - Visible Passes

Search period start: 01 March 2021 00:00
Search period end: 11 March 2021 00:00
Orbit: 594 x 909 km, 66.7° (Epoch: 28 February)

Date Brightness Start Highest point End Pass type
(mag) Time Alt. Az. Time Alt. Az. Time Alt. Az.
01 Mar 7.2 12:36:37 11° SE 12:38:05 12° ESE 12:39:57 10° E visible
01 Mar 5.8 14:16:32 17° SSW 14:19:36 38° SE 14:23:45 10° ENE visible
01 Mar 4.6 15:57:13 10° WSW 16:01:53 89° SSE 16:06:18 10° ENE visible
02 Mar 6.2 13:35:11 21° SSE 13:37:11 29° SE 13:41:02 10° ENE visible
02 Mar 4.7 15:15:05 13° SW 15:19:17 74° SSE 15:23:41 10° ENE visible
03 Mar 6.5 12:53:47 20° SE 12:54:50 21° ESE 12:58:13 10° ENE visible
03 Mar 5.0 14:33:41 20° SW 14:36:43 59° SE 14:41:04 10° ENE visible
04 Mar 6.9 12:12:20 15° ESE 12:12:32 15° ESE 12:15:11 10° E visible
04 Mar 5.3 13:52:14 28° SSW 13:54:13 45° SE 13:58:26 10° ENE visible
04 Mar 4.6 15:32:08 11° WSW 15:36:36 84° NNW 15:40:59 10° ENE visible
05 Mar 7.3 11:30:52 10° ESE 11:30:52 10° ESE 11:31:16 10° E visible
05 Mar 5.7 13:10:45 31° SSE 13:11:45 34° SE 13:15:46 10° ENE visible
05 Mar 4.6 14:50:38 19° WSW 14:53:58 84° SSE 14:58:21 10° ENE visible
06 Mar 6.1 12:29:14 26° SE 12:29:21 26° SE 12:33:02 10° ENE visible
06 Mar 4.7 14:09:08 29° SW 14:11:22 69° SSE 14:15:44 10° ENE visible
06 Mar 4.7 15:49:28 10° W 15:53:59 71° N 15:58:20 10° ENE visible
07 Mar 6.7 11:47:42 18° ESE 11:47:42 18° ESE 11:50:09 10° ENE visible
07 Mar 5.0 13:27:35 40° SSW 13:28:50 54° SE 13:33:07 10° ENE visible
07 Mar 4.6 15:07:28 14° WSW 15:11:19 78° NNW 15:15:41 10° ENE visible
08 Mar 7.2 11:06:08 12° E 11:06:08 12° E 11:06:56 10° E visible
08 Mar 5.3 12:46:01 40° SSE 12:46:20 41° SE 12:50:29 10° ENE visible
08 Mar 4.5 14:25:54 24° WSW 14:28:40 88° NNW 14:33:02 10° ENE visible
09 Mar 5.9 12:04:25 30° ESE 12:04:25 30° ESE 12:07:48 10° ENE visible
09 Mar 4.5 13:44:19 37° SW 13:46:03 78° SSE 13:50:25 10° ENE visible
09 Mar 4.7 15:24:14 10° W 15:28:43 69° N 15:33:03 10° E visible
10 Mar 6.5 11:22:49 20° E 11:22:49 20° E 11:25:01 10° ENE visible
10 Mar 4.7 13:02:42 53° SSW 13:03:28 63° SE 13:07:48 10° ENE visible
10 Mar 4.6 14:42:35 17° W 14:46:02 73° N 14:50:23 10° ENE visible
